weather.gov     
National Weather Service

Regional Weather Roundup
NWS Homepage
This page is being discontinued on March 12, 2014.
The same data is available at this site. Please update your bookmarks.
Thank you, and we apologize for the inconvenience.
Please send an email to SR-SRH.Webmaster@noaa.gov with any concerns.


Current Version
Previous Version:    01  02  03  04  05  06  07  08  09  10  11  12  13  14  15  16  17  18  19  20  21  22  23  24  25  26  27  
[Printable]
029
ASUS45 KSLC 011810
RWRUT

UTAH REGIONAL WEATHER ROUNDUP
NATIONAL WEATHER SERVICE SALT LAKE CITY UT
1200 PM MDT WED OCT 01 2014

UTZ001>011-023>025-011900-

NORTHERN UTAH

CITY           SKY/WX    TMP DP  RH WIND       PRES   REMARKS
HILL AFB       MOSUNNY   51  35  53 N6        30.11R
LOGAN          NOT AVBL
OGDEN          MOSUNNY   52  35  52 CALM      30.10R
PROVO AIRPORT  PTSUNNY   54  34  47 NW12      30.10R
SALT LAKE CITY PTSUNNY   51  37  58 W7        30.10R
VERNAL         LGT RAIN  48  40  73 NE10      30.01R
WENDOVER       MOSUNNY   54  28  37 NW15G24   30.15R
HEBER CITY     CLOUDY    50  28  43 N3        30.07R
WEST JORDAN    CLOUDY    46  36  66 NW9       30.12R

$$

UTZ012>022-026-027-011900-

SOUTHERN UTAH

CITY           SKY/WX    TMP DP  RH WIND       PRES   REMARKS
BRYCE CANYON   PTSUNNY   49  34  56 NW15      30.11S
CEDAR CITY     PTSUNNY   54  42  64 N13       30.10S
MILFORD        PTSUNNY   52  31  44 N15G24    30.13R
MOAB/CYNLANDS  LGT RAIN  54  48  80 W8        29.99S
PRICE          PTSUNNY   52  30  43 NW12G21   30.04R
ST GEORGE      PTCLDY    72  43  35 NE10      29.98S
KANAB            N/A     64  39  39 S6        30.04S

$$

REGIONAL REPORTS     COLORADO/ARIZONA

CITY           SKY/WX    TMP DP  RH WIND       PRES   REMARKS
CRAIG, CO      CLOUDY    44  38  79 S6        30.03S
GRAND JUNCTION PTSUNNY   51  42  71 CALM      30.01S
RIFLE          PTSUNNY   46  41  82 E5        30.03S
MONTROSE       LGT RAIN  45  42  89 SE8       30.06F
CORTEZ         PTSUNNY   63  40  42 W13       29.99S
PAGE, AZ       NOT AVBL
GRAND CANYON   SUNNY     61  36  39 NW8       30.08S
KINGMAN        SUNNY     75  40  28 N8        29.96R
FLAGSTAFF      MOSUNNY   61  33  35 VRB6      30.10F

$$

REGIONAL REPORTS    NEVADA/IDAHO/WYOMING

CITY           SKY/WX    TMP DP  RH WIND       PRES   REMARKS
LAS VEGAS, NV  SUNNY     80  33  18 N14       29.90S
ELY            SUNNY     49  23  36 N14       30.18R
ELKO           SUNNY     52  28  39 MISG      30.20R
POCATELLO, ID  MOSUNNY   52  40  63 SW18      30.13S
BURLEY         MOSUNNY   51  39  63 W14       30.14R
EVANSTON, WY   CLOUDY    41  27  57 W13       30.09R
ROCK SPRINGS   MOSUNNY   44  29  55 W22G28    30.02S

$$




U.S. Dept. of Commerce
NOAA National Weather Service
1325 East West Highway
Silver Spring, MD 20910
E-mail: w-nws.webmaster@noaa.gov
Page last modified: May 16, 2007
NATIONAL WEATHER SERVICE: for Safety, for Work, for Fun - FOR LIFE